AL7BX-WX Weather Reports


Display with metric or nautical units.
time (UTC)temp
F
wind
direction
speed
MPH
gust
MPH
rain 1hr
in
rain 24hr
in
rain mn
in
humidity
%
barometer
mb
20260906154503 71 360 7.0 16.0 0.00 0.00 0.00 46
20260906153603 69 360 5.0 12.0 0.00 0.00 0.00 48
20260906152703 68 339 5.0 12.0 0.00 0.00 0.00 49
20260906151803 65 228 2.0 7.0 0.00 0.00 0.00 54
20260906150903 62 245 1.0 5.0 0.00 0.00 0.00 57
20260906150003 61 257 0.0 3.0 0.00 0.00 0.00 57
20260906145403 61 273 0.0 2.0 0.00 0.00 0.00 59
20260906144503 60 306 2.0 4.0 0.00 0.00 0.00 59
20260906143603 59 236 1.0 4.0 0.00 0.00 0.00 61
20260906142703 59 188 0.0 2.0 0.00 0.00 0.00 63
20260906142012 58 188 0.0 2.0 0.00 0.00 0.00 60
20260906140903 58 187 0.0 1.0 0.00 0.00 0.00 59
20260906140003 58 196 1.0 4.0 0.00 0.00 0.00 59
20260906135403 57 212 0.0 4.0 0.00 0.00 0.00 61
20260906134503 57 235 0.0 3.0 0.00 0.00 0.00 60
20260906133603 56 235 0.0 1.0 0.00 0.00 0.00 60
20260906132703 57 235 0.0 2.0 0.00 0.00 0.00 59
20260906132014 57 235 0.0 2.0 0.00 0.00 0.00 59
20260906130903 58 235 0.0 3.0 0.00 0.00 0.00 57
20260906130003 58 236 1.0 4.0 0.00 0.00 0.00 56
20260906125403 58 236 2.0 4.0 0.00 0.00 0.00 56
20260906124503 57 236 1.0 3.0 0.00 0.00 0.00 57
20260906123603 56 236 1.0 3.0 0.00 0.00 0.00 59
20260906122703 55 0 0.0 0.0 0.00 0.00 0.00 60
20260906121803 56 0 0.0 0.0 0.00 0.00 0.00 60
20260906121113 56 0 0.0 0.0 0.00 0.00 0.00 59
20260906120003 55 237 0.0 1.0 0.00 0.00 0.00 59
20260906115403 55 0 0.0 0.0 0.00 0.00 0.00 60
20260906114503 54 0 0.0 0.0 0.00 0.00 0.00 60
20260906113603 54 0 0.0 0.0 0.00 0.00 0.00 60
20260906112703 55 238 0.0 1.0 0.00 0.00 0.00 60
20260906111803 55 238 0.0 2.0 0.00 0.00 0.00 60
20260906110903 54 238 0.0 2.0 0.00 0.00 0.00 59
20260906110003 55 237 1.0 4.0 0.00 0.00 0.00 58
20260906105403 56 237 1.0 4.0 0.00 0.00 0.00 57
20260906104503 56 238 0.0 2.0 0.00 0.00 0.00 58
20260906103603 55 245 0.0 2.0 0.00 0.00 0.00 60
20260906102703 55 0 0.0 0.0 0.00 0.00 0.00 59
20260906101803 56 0 0.0 0.0 0.00 0.00 0.00 58
20260906100903 56 0 0.0 0.0 0.00 0.00 0.00 58
20260906100003 55 248 0.0 1.0 0.00 0.00 0.00 58
20260906095403 55 248 0.0 1.0 0.00 0.00 0.00 58
20260906094503 55 0 0.0 0.0 0.00 0.00 0.00 58
20260906093603 55 248 0.0 2.0 0.00 0.00 0.00 58
20260906092703 56 248 1.0 3.0 0.00 0.00 0.00 57
20260906091803 57 232 2.0 5.0 0.00 0.00 0.00 54
20260906090903 58 157 0.0 3.0 0.00 0.00 0.00 55
20260906090003 58 157 0.0 3.0 0.00 0.00 0.00 54
20260906085403 57 157 0.0 3.0 0.00 0.00 0.00 55
20260906084503 56 157 0.0 2.0 0.00 0.00 0.00 55
20260906083603 56 0 0.0 0.0 0.00 0.00 0.00 57
20260906082703 56 0 0.0 0.0 0.00 0.00 0.00 56
20260906082012 56 0 0.0 0.0 0.00 0.00 0.00 57
20260906080903 56 0 0.0 0.0 0.00 0.00 0.00 55
20260906080003 56 0 0.0 0.0 0.00 0.00 0.00 55
20260906075403 56 0 0.0 0.0 0.00 0.00 0.00 54
20260906074503 57 0 0.0 0.0 0.00 0.00 0.00 53
20260906073603 57 0 0.0 0.0 0.00 0.00 0.00 53
20260906072703 58 156 0.0 1.0 0.00 0.00 0.00 51
20260906071803 58 157 0.0 3.0 0.00 0.00 0.00 51
20260906070903 59 157 0.0 1.0 0.00 0.00 0.00 49
20260906070003 59 157 0.0 1.0 0.00 0.00 0.00 50
20260906065403 59 0 0.0 0.0 0.00 0.00 0.00 49
20260906064503 59 157 0.0 2.0 0.00 0.00 0.00 49
20260906063603 58 157 0.0 1.0 0.00 0.00 0.00 49
20260906062703 59 157 0.0 1.0 0.00 0.00 0.00 48
20260906061803 59 204 0.0 1.0 0.00 0.00 0.00 48
20260906061113 59 203 0.0 1.0 0.00 0.00 0.00 48
20260906060218 60 0 0.0 0.0 0.00 0.00 0.00 47
20260906055614 60 0 0.0 0.0 0.00 0.00 0.00 47
20260906054503 62 0 0.0 0.0 0.00 0.00 0.00 45
20260906053603 63 216 0.0 2.0 0.00 0.00 0.00 43
20260906052703 63 220 0.0 2.0 0.00 0.00 0.00 43
20260906052013 63 214 0.0 1.0 0.00 0.00 0.00 42
20260906051112 64 208 0.0 3.0 0.00 0.00 0.00 41
20260906050004 64 217 1.0 3.0 0.00 0.00 0.00 41
20260906045403 65 344 0.0 2.0 0.00 0.00 0.00 40
20260906044503 66 42 0.0 2.0 0.00 0.00 0.00 39
20260906043603 67 156 1.0 4.0 0.00 0.00 0.00 38
20260906042703 67 156 1.0 4.0 0.00 0.00 0.00 37
20260906041803 68 175 2.0 5.0 0.00 0.00 0.00 37
20260906040903 68 187 3.0 5.0 0.00 0.00 0.00 37
20260906040003 68 201 3.0 6.0 0.00 0.00 0.00 37
20260906035403 68 197 3.0 6.0 0.00 0.00 0.00 37
20260906034503 68 268 3.0 5.0 0.00 0.00 0.00 37
20260906033603 68 360 3.0 7.0 0.00 0.00 0.00 37
20260906032703 69 360 4.0 8.0 0.00 0.00 0.00 36
20260906031803 69 306 4.0 7.0 0.00 0.00 0.00 36
20260906030903 70 240 4.0 7.0 0.00 0.00 0.00 36
20260906030003 70 242 4.0 9.0 0.00 0.00 0.00 35
20260906025403 71 234 5.0 9.0 0.00 0.00 0.00 34
20260906024503 71 267 4.0 9.0 0.00 0.00 0.00 34
20260906023603 71 234 4.0 12.0 0.00 0.00 0.00 33
20260906022703 72 238 4.0 9.0 0.00 0.00 0.00 33
20260906022014 72 255 3.0 6.0 0.00 0.00 0.00 32
20260906020903 73 332 4.0 10.0 0.00 0.00 0.00 31
20260906020212 74 360 6.0 14.0 0.00 0.00 0.00 31
20260906015614 75 360 6.0 15.0 0.00 0.00 0.00 30
20260906014503 76 216 7.0 16.0 0.00 0.00 0.00 30
20260906013603 76 347 7.0 21.0 0.00 0.00 0.00 30
20260906012912 77 350 7.0 16.0 0.00 0.00 0.00 29
20260906012014 78 353 9.0 18.0 0.00 0.00 0.00 28
20260906010903 78 312 7.0 16.0 0.00 0.00 0.00 28
20260906010003 79 324 9.0 18.0 0.00 0.00 0.00 27
20260906005614 79 302 9.0 18.0 0.00 0.00 0.00 28
20260906004503 80 210 7.0 16.0 0.00 0.00 0.00 27
20260906003603 80 190 7.0 17.0 0.00 0.00 0.00 27
20260906002703 80 206 9.0 20.0 0.00 0.00 0.00 27
20260906001803 80 327 9.0 21.0 0.00 0.00 0.00 27
20260906000903 80 360 9.0 21.0 0.00 0.00 0.00 26
20260906000003 80 359 10.0 18.0 0.00 0.00 0.00 27
20260905235403 81 359 10.0 19.0 0.00 0.00 0.00 27
20260905234503 81 360 10.0 20.0 0.00 0.00 0.00 27
20260905233603 81 360 11.0 22.0 0.00 0.00 0.00 27
20260905232703 81 360 13.0 25.0 0.00 0.00 0.00 26
20260905231803 81 360 11.0 20.0 0.00 0.00 0.00 26
20260905230903 81 360 12.0 23.0 0.00 0.00 0.00 26
20260905230213 81 360 11.0 22.0 0.00 0.00 0.00 26
20260905225403 82 360 10.0 21.0 0.00 0.00 0.00 26
20260905224712 82 360 12.0 22.0 0.00 0.00 0.00 26
20260905223814 82 360 12.0 25.0 0.00 0.00 0.00 24
20260905222703 82 360 14.0 25.0 0.00 0.00 0.00 25
20260905221803 83 360 10.0 20.0 0.00 0.00 0.00 24
20260905220903 83 359 10.0 30.0 0.00 0.00 0.00 25
20260905220213 82 353 11.0 23.0 0.00 0.00 0.00 25
20260905215403 82 328 11.0 24.0 0.00 0.00 0.00 27
20260905214503 82 341 10.0 20.0 0.00 0.00 0.00 27
20260905213603 82 312 10.0 19.0 0.00 0.00 0.00 27
20260905212703 82 213 11.0 24.0 0.00 0.00 0.00 27
20260905212014 82 197 12.0 24.0 0.00 0.00 0.00 27
20260905210903 82 191 13.0 26.0 0.00 0.00 0.00 25
20260905210003 82 182 12.0 28.0 0.00 0.00 0.00 26
20260905205403 82 188 11.0 28.0 0.00 0.00 0.00 26
20260905204714 82 187 10.0 19.0 0.00 0.00 0.00 27
20260905203603 82 289 12.0 23.0 0.00 0.00 0.00 27
20260905202703 81 286 12.0 23.0 0.00 0.00 0.00 27
20260905201803 81 359 14.0 30.0 0.00 0.00 0.00 27
20260905201113 81 345 14.0 29.0 0.00 0.00 0.00 27
20260905200003 81 281 14.0 24.0 0.00 0.00 0.00 27
20260905195403 81 293 13.0 31.0 0.00 0.00 0.00 27
20260905194503 81 292 12.0 24.0 0.00 0.00 0.00 28
20260905193603 80 203 13.0 27.0 0.00 0.00 0.00 27
20260905192914 80 194 12.0 24.0 0.00 0.00 0.00 26
20260905192013 80 195 12.0 28.0 0.00 0.00 0.00 28
20260905190903 79 192 13.0 28.0 0.00 0.00 0.00 27
20260905190003 79 189 13.0 28.0 0.00 0.00 0.00 26
20260905185403 79 187 14.0 31.0 0.00 0.00 0.00 29
20260905184713 78 185 15.0 32.0 0.00 0.00 0.00 29
20260905183603 78 180 13.0 26.0 0.00 0.00 0.00 30
20260905182703 78 180 10.0 22.0 0.00 0.00 0.00 29
20260905181803 78 186 10.0 20.0 0.00 0.00 0.00 30
20260905180903 77 190 12.0 26.0 0.00 0.00 0.00 30
20260905180003 78 183 10.0 21.0 0.00 0.00 0.00 28
20260905175404 77 176 9.0 19.0 0.00 0.00 0.00 30
20260905174503 77 188 12.0 25.0 0.00 0.00 0.00 29
20260905173603 76 185 12.0 24.0 0.00 0.00 0.00 29
20260905172913 76 187 10.0 24.0 0.00 0.00 0.00 29
20260905171803 76 187 12.0 21.0 0.00 0.00 0.00 30
20260905170903 76 186 11.0 23.0 0.00 0.00 0.00 32
20260905170003 75 185 10.0 22.0 0.00 0.00 0.00 32
20260905165403 75 189 9.0 20.0 0.00 0.00 0.00 32
20260905164503 75 178 10.0 20.0 0.00 0.00 0.00 31
20260905163814 75 179 9.0 17.0 0.00 0.00 0.00 32
20260905162913 74 177 6.0 15.0 0.00 0.00 0.00 32
20260905161803 74 176 8.0 17.0 0.00 0.00 0.00 31
20260905160903 72 187 7.0 13.0 0.00 0.00 0.00 31
20260905160003 71 183 7.0 14.0 0.00 0.00 0.00 31
20260905155403 70 170 6.0 14.0 0.00 0.00 0.00 34